TimeCDT,TemperatureF,Dew PointF,Humidity,Sea Level PressureIn,VisibilityMPH,Wind Direction,Wind SpeedMPH,Gust SpeedMPH,PrecipitationIn,Events,Conditions,WindDirDegrees,DateUTC
7:15 AM,26.6,24.8,93,30.20,10.0,Calm,Calm,-,N/A,,Clear,0,2012-10-08 12:15:00
7:35 AM,28.4,26.6,93,30.21,10.0,South,3.5,-,N/A,,Clear,180,2012-10-08 12:35:00
7:55 AM,30.2,28.4,93,30.21,10.0,South,3.5,-,N/A,,Clear,170,2012-10-08 12:55:00
8:15 AM,35.6,32.0,87,30.22,10.0,South,3.5,-,N/A,,Clear,180,2012-10-08 13:15:00
8:35 AM,39.2,33.8,81,30.22,10.0,South,4.6,-,N/A,,Clear,180,2012-10-08 13:35:00
8:55 AM,42.8,35.6,76,30.22,10.0,South,5.8,-,N/A,,Clear,190,2012-10-08 13:55:00
9:15 AM,44.6,33.8,66,30.23,10.0,SSW,6.9,-,N/A,,Clear,210,2012-10-08 14:15:00
9:35 AM,46.4,33.8,62,30.23,10.0,SSW,9.2,-,N/A,,Clear,210,2012-10-08 14:35:00
9:55 AM,48.2,30.2,50,30.23,10.0,SSW,9.2,-,N/A,,Clear,210,2012-10-08 14:55:00
10:15 AM,48.2,28.4,46,30.23,10.0,SW,9.2,-,N/A,,Clear,220,2012-10-08 15:15:00
10:35 AM,48.2,28.4,46,30.22,10.0,SSW,6.9,-,N/A,,Clear,210,2012-10-08 15:35:00
10:55 AM,50.0,26.6,40,30.22,10.0,SSW,9.2,-,N/A,,Clear,200,2012-10-08 15:55:00
11:15 AM,51.8,28.4,41,30.22,10.0,SW,9.2,-,N/A,,Clear,220,2012-10-08 16:15:00
11:35 AM,51.8,28.4,41,30.21,10.0,South,5.8,-,N/A,,Clear,180,2012-10-08 16:35:00
11:55 AM,51.8,30.2,44,30.20,10.0,South,4.6,-,N/A,,Clear,180,2012-10-08 16:55:00
12:15 PM,53.6,28.4,38,30.19,10.0,SW,4.6,-,N/A,,Clear,230,2012-10-08 17:15:00
12:35 PM,53.6,28.4,38,30.19,10.0,West,11.5,-,N/A,,Clear,260,2012-10-08 17:35:00
12:55 PM,53.6,26.6,35,30.17,10.0,West,6.9,-,N/A,,Clear,270,2012-10-08 17:55:00
1:15 PM,53.6,28.4,38,30.16,10.0,SSW,11.5,-,N/A,,Clear,210,2012-10-08 18:15:00
1:35 PM,55.4,28.4,36,30.15,10.0,West,6.9,-,N/A,,Clear,280,2012-10-08 18:35:00
1:55 PM,55.4,26.6,33,30.14,10.0,West,6.9,-,N/A,,Clear,260,2012-10-08 18:55:00
2:15 PM,55.4,26.6,33,30.14,10.0,SW,6.9,-,N/A,,Clear,220,2012-10-08 19:15:00
2:35 PM,57.2,26.6,31,30.13,10.0,SSW,8.1,-,N/A,,Clear,210,2012-10-08 19:35:00
2:55 PM,57.2,24.8,29,30.12,10.0,SW,12.7,-,N/A,,Clear,230,2012-10-08 19:55:00
3:15 PM,57.2,26.6,31,30.12,10.0,South,9.2,-,N/A,,Clear,170,2012-10-08 20:15:00
3:35 PM,57.2,26.6,31,30.12,10.0,SSW,11.5,-,N/A,,Clear,210,2012-10-08 20:35:00
3:55 PM,57.2,24.8,29,30.11,10.0,SSW,9.2,-,N/A,,Clear,210,2012-10-08 20:55:00
4:15 PM,57.2,26.6,31,30.11,10.0,SSW,9.2,-,N/A,,Clear,200,2012-10-08 21:15:00
4:35 PM,57.2,26.6,31,30.11,10.0,WSW,10.4,18.4,N/A,,Clear,240,2012-10-08 21:35:00
4:55 PM,55.4,26.6,33,30.10,10.0,South,9.2,-,N/A,,Clear,190,2012-10-08 21:55:00
5:15 PM,55.4,26.6,33,30.10,10.0,SSW,9.2,-,N/A,,Clear,200,2012-10-08 22:15:00